Location: Newark
(60.6561°N, 46.5772°E)
Time: 22:25:18
(UTC+00:00)

Vanguard 1 - All Passes

Search period start: 16 October 2019 00:00
Search period end: 26 October 2019 00:00
Orbit: 653 x 3830 km, 34.3° (Epoch: 14 October)

Date Brightness Start Highest point End Pass type
(mag) Time Alt. Az. Time Alt. Az. Time Alt. Az.
16 Oct - 17:10:33 10° SSW 17:18:52 20° SSE 17:30:12 10° ESE visible
16 Oct - 19:27:44 10° SW 19:38:49 25° S 19:53:54 10° SE visible
16 Oct - 21:48:33 10° WSW 21:59:36 20° SSW 22:12:51 10° S visible
17 Oct - 17:30:27 10° SSW 17:39:04 22° SSE 17:51:02 10° ESE visible
17 Oct - 19:48:23 10° SW 19:59:13 24° S 20:13:47 10° SE visible
17 Oct - 22:10:27 10° WSW 22:19:52 16° SSW 22:30:48 10° S visible
18 Oct - 15:36:38 10° SSE 15:40:35 12° SE 15:45:13 10° ESE visible
18 Oct - 17:50:35 10° SSW 17:59:21 22° SSE 18:11:38 10° SE visible
18 Oct - 20:09:15 10° SW 20:19:38 22° SSW 20:33:19 10° SSE visible
18 Oct - 22:33:30 10° WSW 22:40:03 13° SW 22:47:18 10° SSW night (unlit)
19 Oct - 15:55:26 10° S 16:00:37 14° SSE 16:07:07 10° ESE visible
19 Oct - 18:10:54 10° SW 18:19:41 22° S 18:32:00 10° SE visible
19 Oct - 20:30:22 10° WSW 20:40:02 19° SSW 20:52:24 10° SSE visible
20 Oct - 16:14:53 10° S 16:20:44 16° SSE 16:28:23 10° ESE visible
20 Oct - 18:31:25 10° SW 18:40:05 21° S 18:52:05 10° SE visible
20 Oct - 20:51:55 10° WSW 21:00:24 17° SSW 21:10:51 10° S visible
21 Oct - 16:34:44 10° SSW 16:40:57 17° SSE 16:49:16 10° SE visible
21 Oct - 18:52:08 10° SW 19:00:30 20° S 19:11:52 10° SSE visible
21 Oct - 21:14:18 10° SW 21:20:44 13° SSW 21:28:13 10° S night (unlit)
22 Oct - 16:54:51 10° SSW 17:01:14 18° SSE 17:09:52 10° SE visible
22 Oct - 19:13:06 10° SW 19:20:56 18° S 19:31:15 10° SSE visible
23 Oct - 17:15:13 10° SSW 17:21:35 18° S 17:30:10 10° SE visible
23 Oct - 19:34:29 10° SW 19:41:21 16° SSW 19:50:03 10° SSE visible
24 Oct - 15:20:25 10° S 15:23:08 11° SSE 15:26:17 10° SE visible
24 Oct - 17:35:48 10° SSW 17:41:58 17° S 17:50:10 10° SE visible
24 Oct - 19:56:36 10° SW 20:01:47 13° SSW 20:07:53 10° S visible
25 Oct - 15:39:57 10° S 15:43:23 12° SSE 15:47:27 10° SE visible
25 Oct - 17:56:41 10° SW 18:02:24 15° S 18:09:46 10° SSE visible
